VOE3542 LEBB-LEMH

Flight info

Callsign VOE3542
Flight time 1h 6m
Altitude 32000
Route PPN M601 TURPU/N0455F340 M601 BCN N725 DIPES/N0458F330 N727 SARGO
Aircraft A319/M-SDE3FGHIRWY/LB1

Departure

Time 2026-04-26 14:44
Airport Bilbao Airport (LEBB)

Arrival

Time 2026-04-26 15:51
Airport Menorca Airport (LEMH)
Time Latitude Longitude Altitude Speed Heading
2026-04-26 14:28 43.30381 -2.90516 162 ft 0 kts 26°
2026-04-26 14:36 43.30380 -2.90516 162 ft 0 kts 26°
2026-04-26 14:36 43.30379 -2.90517 162 ft 1 kts 27°
2026-04-26 14:36 43.30366 -2.90526 162 ft 2 kts 26°
2026-04-26 14:37 43.30352 -2.90536 162 ft 2 kts 26°
2026-04-26 14:37 43.30339 -2.90545 162 ft 2 kts 26°
2026-04-26 14:37 43.30326 -2.90554 162 ft 2 kts 26°
2026-04-26 14:37 43.30312 -2.90563 160 ft 2 kts 26°
2026-04-26 14:38 43.30303 -2.90569 159 ft 0 kts 26°
2026-04-26 14:38 43.30299 -2.90575 159 ft 0 kts 92°
2026-04-26 14:38 43.30300 -2.90582 159 ft 0 kts 139°
2026-04-26 14:38 43.30305 -2.90585 160 ft 1 kts 150°
2026-04-26 14:39 43.30307 -2.90587 160 ft 0 kts 147°
2026-04-26 14:40 43.30306 -2.90585 160 ft 2 kts 146°
2026-04-26 14:40 43.30271 -2.90554 156 ft 7 kts 146°
2026-04-26 14:41 43.30216 -2.90535 151 ft 10 kts 204°
2026-04-26 14:41 43.30151 -2.90578 145 ft 8 kts 197°
2026-04-26 14:41 43.30094 -2.90518 142 ft 13 kts 115°
2026-04-26 14:41 43.30052 -2.90399 142 ft 14 kts 116°
2026-04-26 14:42 43.30003 -2.90265 140 ft 16 kts 116°
2026-04-26 14:42 43.29946 -2.90109 137 ft 19 kts 116°
2026-04-26 14:42 43.29878 -2.89923 128 ft 24 kts 117°
2026-04-26 14:42 43.29811 -2.89738 118 ft 19 kts 117°
2026-04-26 14:43 43.29765 -2.89613 112 ft 11 kts 118°
2026-04-26 14:43 43.29695 -2.89611 110 ft 12 kts 231°
2026-04-26 14:43 43.29648 -2.89700 112 ft 9 kts 236°
2026-04-26 14:43 43.29642 -2.89777 115 ft 8 kts 284°
2026-04-26 14:44 43.29682 -2.89897 120 ft 19 kts 296°
2026-04-26 14:44 43.29855 -2.90363 131 ft 92 kts 295°
2026-04-26 14:44 43.30252 -2.91452 142 ft 157 kts 293°
2026-04-26 14:44 43.30732 -2.92829 776 ft 162 kts 297°
2026-04-26 14:45 43.31231 -2.94165 1592 ft 161 kts 298°
2026-04-26 14:45 43.31560 -2.95075 2077 ft 164 kts 298°
2026-04-26 14:45 43.32261 -2.97061 2842 ft 186 kts 297°
2026-04-26 14:45 43.32851 -2.98734 3421 ft 203 kts 297°
2026-04-26 14:46 43.33555 -3.00485 3989 ft 219 kts 310°
2026-04-26 14:46 43.34865 -3.01574 4480 ft 237 kts 352°
2026-04-26 14:46 43.36492 -3.01239 5269 ft 244 kts 26°
2026-04-26 14:46 43.37949 -3.00083 6225 ft 247 kts 31°
2026-04-26 14:47 43.39424 -2.98885 7151 ft 251 kts 28°
2026-04-26 14:47 43.40969 -2.97765 8055 ft 255 kts 26°
2026-04-26 14:47 43.42562 -2.96715 8947 ft 259 kts 24°
2026-04-26 14:47 43.44202 -2.95694 9824 ft 263 kts 23°
2026-04-26 14:48 43.45889 -2.94672 10686 ft 268 kts 23°
2026-04-26 14:48 43.47593 -2.93650 11565 ft 271 kts 23°
2026-04-26 14:48 43.49218 -2.92349 12391 ft 276 kts 43°
2026-04-26 14:48 43.50293 -2.90197 13166 ft 281 kts 69°
2026-04-26 14:49 43.50590 -2.87545 13790 ft 291 kts 95°
2026-04-26 14:49 43.49996 -2.84817 14257 ft 307 kts 115°
2026-04-26 14:49 43.49068 -2.82131 14958 ft 314 kts 115°
2026-04-26 14:49 43.48154 -2.79439 15733 ft 316 kts 114°
2026-04-26 14:50 43.47233 -2.76682 16544 ft 318 kts 114°
2026-04-26 14:50 43.46326 -2.73942 17292 ft 321 kts 114°
2026-04-26 14:50 43.45398 -2.71120 18019 ft 324 kts 114°
2026-04-26 14:50 43.44477 -2.68317 18752 ft 327 kts 114°
2026-04-26 14:51 43.43541 -2.65462 19447 ft 330 kts 114°
2026-04-26 14:51 43.42598 -2.62591 20137 ft 333 kts 114°
2026-04-26 14:51 43.41642 -2.59678 20812 ft 336 kts 114°
2026-04-26 14:51 43.40684 -2.56763 21483 ft 340 kts 114°
2026-04-26 14:52 43.39704 -2.53786 22119 ft 344 kts 114°
2026-04-26 14:52 43.38718 -2.50791 22770 ft 347 kts 113°
2026-04-26 14:52 43.37734 -2.47804 23383 ft 350 kts 114°
2026-04-26 14:52 43.36721 -2.44736 23996 ft 354 kts 113°
2026-04-26 14:53 43.35705 -2.41662 24600 ft 358 kts 113°
2026-04-26 14:53 43.34677 -2.38556 25188 ft 361 kts 113°
2026-04-26 14:53 43.33639 -2.35422 25747 ft 364 kts 113°
2026-04-26 14:53 43.32578 -2.32221 26304 ft 368 kts 114°
2026-04-26 14:54 43.31394 -2.29140 26826 ft 372 kts 123°
2026-04-26 14:54 43.29760 -2.26382 27328 ft 377 kts 134°
2026-04-26 14:54 43.27726 -2.24029 27566 ft 388 kts 142°
2026-04-26 14:54 43.25530 -2.21823 27775 ft 399 kts 143°
2026-04-26 14:55 43.23241 -2.19563 27978 ft 409 kts 143°
2026-04-26 14:55 43.20927 -2.17273 28169 ft 419 kts 143°
2026-04-26 14:55 43.18541 -2.14905 28354 ft 428 kts 143°
2026-04-26 14:55 43.16130 -2.12507 28528 ft 437 kts 143°
2026-04-26 14:56 43.13617 -2.10005 28698 ft 446 kts 143°
2026-04-26 14:56 43.11115 -2.07513 28961 ft 451 kts 143°
2026-04-26 14:56 43.08580 -2.04990 29350 ft 453 kts 143°
2026-04-26 14:56 43.06033 -2.02456 29760 ft 455 kts 143°
2026-04-26 14:57 43.03484 -1.99926 30263 ft 454 kts 143°
2026-04-26 14:57 43.00937 -1.97397 30780 ft 452 kts 143°
2026-04-26 14:57 42.98412 -1.94892 31250 ft 451 kts 143°
2026-04-26 14:57 42.95873 -1.92375 31701 ft 451 kts 143°
2026-04-26 14:58 42.93328 -1.89854 32158 ft 450 kts 143°
2026-04-26 14:58 42.90808 -1.87361 32595 ft 450 kts 143°
2026-04-26 14:58 42.88282 -1.84865 32962 ft 451 kts 143°
2026-04-26 14:58 42.85741 -1.82357 33286 ft 452 kts 143°
2026-04-26 14:59 42.83221 -1.79873 33578 ft 454 kts 143°
2026-04-26 14:59 42.80665 -1.77325 33876 ft 455 kts 141°
2026-04-26 14:59 42.78243 -1.74590 34124 ft 456 kts 137°
2026-04-26 15:00 42.73878 -1.68346 34153 ft 456 kts 127°
2026-04-26 15:00 42.70312 -1.61258 34158 ft 454 kts 118°
2026-04-26 15:01 42.67508 -1.53592 34156 ft 454 kts 113°
2026-04-26 15:01 42.64838 -1.45902 34158 ft 454 kts 114°
2026-04-26 15:02 42.62113 -1.38189 34155 ft 454 kts 114°
2026-04-26 15:02 42.59374 -1.30465 34156 ft 455 kts 115°
2026-04-26 15:03 42.56641 -1.22776 34156 ft 455 kts 115°
2026-04-26 15:03 42.53899 -1.15085 34159 ft 455 kts 115°
2026-04-26 15:04 42.51154 -1.07405 34157 ft 455 kts 115°
2026-04-26 15:04 42.48389 -0.99692 34161 ft 455 kts 115°
2026-04-26 15:05 42.45628 -0.91999 34165 ft 456 kts 115°
2026-04-26 15:05 42.42862 -0.84317 34159 ft 456 kts 115°
2026-04-26 15:06 42.40092 -0.76647 34158 ft 457 kts 115°
2026-04-26 15:06 42.37293 -0.68922 34159 ft 457 kts 115°
2026-04-26 15:07 42.33102 -0.57396 34153 ft 458 kts 115°
2026-04-26 15:07 42.30296 -0.49697 34154 ft 458 kts 115°
2026-04-26 15:08 42.27479 -0.41992 34157 ft 458 kts 115°
2026-04-26 15:08 42.24671 -0.34332 34159 ft 458 kts 116°
2026-04-26 15:09 42.21836 -0.26617 34162 ft 459 kts 116°
2026-04-26 15:09 42.19016 -0.18963 34161 ft 459 kts 116°
2026-04-26 15:10 42.16653 -0.12570 34165 ft 460 kts 116°
2026-04-26 15:10 42.13321 -0.03578 34152 ft 460 kts 116°
2026-04-26 15:11 42.10471 0.04086 34142 ft 460 kts 116°
2026-04-26 15:11 42.07605 0.11773 34135 ft 461 kts 116°
2026-04-26 15:12 42.04730 0.19474 34123 ft 461 kts 116°
2026-04-26 15:12 42.01848 0.27166 34118 ft 461 kts 116°
2026-04-26 15:13 41.98963 0.34838 34120 ft 462 kts 116°
2026-04-26 15:13 41.96080 0.42488 34127 ft 462 kts 116°
2026-04-26 15:14 41.93170 0.50195 34131 ft 463 kts 116°
2026-04-26 15:14 41.90260 0.57884 34130 ft 463 kts 116°
2026-04-26 15:15 41.87354 0.65541 34125 ft 464 kts 117°
2026-04-26 15:15 41.84414 0.73265 34123 ft 464 kts 117°
2026-04-26 15:16 41.81487 0.80929 34120 ft 464 kts 117°
2026-04-26 15:16 41.78553 0.88592 34120 ft 463 kts 117°
2026-04-26 15:17 41.76113 0.94952 34119 ft 463 kts 117°
2026-04-26 15:17 41.72684 1.03860 34117 ft 463 kts 117°
2026-04-26 15:18 41.69738 1.11495 34126 ft 464 kts 117°
2026-04-26 15:18 41.66769 1.19171 34132 ft 464 kts 117°
2026-04-26 15:19 41.63811 1.26798 34140 ft 463 kts 117°
2026-04-26 15:19 41.60858 1.34392 34144 ft 463 kts 117°
2026-04-26 15:20 41.57906 1.41962 34146 ft 462 kts 117°
2026-04-26 15:20 41.54930 1.49572 34143 ft 461 kts 117°
2026-04-26 15:21 41.51960 1.57150 34141 ft 461 kts 117°
2026-04-26 15:21 41.48989 1.64704 34135 ft 462 kts 117°
2026-04-26 15:22 41.46032 1.72215 34130 ft 461 kts 117°
2026-04-26 15:22 41.43052 1.79760 34125 ft 461 kts 118°
2026-04-26 15:23 41.40068 1.87293 34125 ft 461 kts 117°
2026-04-26 15:23 41.37077 1.94824 34121 ft 460 kts 117°
2026-04-26 15:24 41.34105 2.02303 34122 ft 459 kts 117°
2026-04-26 15:24 41.31494 2.10027 34128 ft 459 kts 110°
2026-04-26 15:25 41.29822 2.16690 34128 ft 459 kts 105°
2026-04-26 15:25 41.28123 2.26346 34122 ft 459 kts 102°
2026-04-26 15:26 41.26774 2.34583 34123 ft 459 kts 102°
2026-04-26 15:26 41.25404 2.42870 34123 ft 459 kts 102°
2026-04-26 15:27 41.24027 2.51122 34122 ft 459 kts 102°
2026-04-26 15:27 41.22649 2.59345 34118 ft 459 kts 102°
2026-04-26 15:28 41.21262 2.67568 34116 ft 458 kts 103°
2026-04-26 15:28 41.19862 2.75837 34116 ft 458 kts 103°
2026-04-26 15:29 41.18465 2.84050 33725 ft 458 kts 103°
2026-04-26 15:29 41.17073 2.92192 32538 ft 453 kts 103°
2026-04-26 15:30 41.15680 3.00301 31063 ft 451 kts 102°
2026-04-26 15:30 41.14983 3.04345 30282 ft 451 kts 102°
2026-04-26 15:30 41.14291 3.08356 29485 ft 452 kts 102°
2026-04-26 15:31 41.13595 3.12376 28801 ft 449 kts 102°
2026-04-26 15:31 41.12203 3.20395 27799 ft 444 kts 102°
2026-04-26 15:31 41.11517 3.24335 27284 ft 440 kts 102°
2026-04-26 15:32 41.10374 3.30877 26405 ft 434 kts 102°
2026-04-26 15:32 41.09473 3.36016 25701 ft 429 kts 102°
2026-04-26 15:32 41.08803 3.39830 25177 ft 425 kts 102°
2026-04-26 15:33 41.08132 3.43635 24652 ft 421 kts 102°
2026-04-26 15:33 41.07476 3.47350 24142 ft 417 kts 102°
2026-04-26 15:33 41.06703 3.51001 23614 ft 414 kts 111°
2026-04-26 15:33 41.05209 3.54260 23099 ft 411 kts 129°
2026-04-26 15:34 41.03080 3.56746 22567 ft 408 kts 146°
2026-04-26 15:34 41.00685 3.58694 22063 ft 405 kts 148°
2026-04-26 15:34 40.98289 3.60587 21546 ft 401 kts 148°
2026-04-26 15:34 40.95924 3.62460 21029 ft 398 kts 148°
2026-04-26 15:35 40.93556 3.64346 20520 ft 394 kts 148°
2026-04-26 15:35 40.91225 3.66211 20011 ft 391 kts 148°
2026-04-26 15:35 40.88904 3.68073 19501 ft 389 kts 148°
2026-04-26 15:35 40.86615 3.69913 18992 ft 387 kts 148°
2026-04-26 15:36 40.84328 3.71752 18479 ft 384 kts 148°
2026-04-26 15:36 40.82071 3.73568 17992 ft 382 kts 148°
2026-04-26 15:36 40.79782 3.75408 17478 ft 381 kts 148°
2026-04-26 15:36 40.77531 3.77213 16970 ft 379 kts 148°
2026-04-26 15:37 40.75314 3.78987 16494 ft 377 kts 148°
2026-04-26 15:37 40.73087 3.80771 16011 ft 375 kts 148°
2026-04-26 15:37 40.70859 3.82555 15512 ft 373 kts 148°
2026-04-26 15:37 40.68650 3.84323 15012 ft 372 kts 148°
2026-04-26 15:38 40.66446 3.86087 14514 ft 370 kts 147°
2026-04-26 15:38 40.64256 3.87839 14007 ft 369 kts 147°
2026-04-26 15:38 40.62070 3.89585 13498 ft 367 kts 147°
2026-04-26 15:38 40.59916 3.91304 13170 ft 361 kts 147°
2026-04-26 15:39 40.57773 3.93013 13117 ft 362 kts 147°
2026-04-26 15:39 40.55628 3.94722 12976 ft 359 kts 147°
2026-04-26 15:39 40.53490 3.96424 12234 ft 363 kts 147°
2026-04-26 15:39 40.52055 3.97565 11648 ft 368 kts 148°
2026-04-26 15:40 40.48963 3.99494 10914 ft 363 kts 159°
2026-04-26 15:40 40.46599 4.00462 10549 ft 354 kts 163°
2026-04-26 15:40 40.44260 4.01295 10354 ft 340 kts 164°
2026-04-26 15:40 40.42024 4.02074 10214 ft 325 kts 164°
2026-04-26 15:41 40.39901 4.02814 10015 ft 314 kts 164°
2026-04-26 15:41 40.37816 4.03545 9743 ft 307 kts 164°
2026-04-26 15:41 40.35753 4.04272 9426 ft 302 kts 164°
2026-04-26 15:41 40.33777 4.05034 9090 ft 297 kts 157°
2026-04-26 15:42 40.31963 4.06265 8764 ft 291 kts 148°
2026-04-26 15:42 40.30255 4.07640 8367 ft 284 kts 147°
2026-04-26 15:42 40.28581 4.08995 7853 ft 282 kts 147°
2026-04-26 15:42 40.26911 4.10312 7311 ft 280 kts 148°
2026-04-26 15:43 40.25252 4.11591 6785 ft 278 kts 148°
2026-04-26 15:43 40.23600 4.12846 6264 ft 275 kts 148°
2026-04-26 15:43 40.20304 4.15322 5246 ft 268 kts 149°
2026-04-26 15:44 40.18716 4.16507 4860 ft 263 kts 149°
2026-04-26 15:44 40.15564 4.18856 4204 ft 259 kts 148°
2026-04-26 15:44 40.13983 4.20033 3862 ft 258 kts 148°
2026-04-26 15:45 40.10899 4.22326 3231 ft 255 kts 148°
2026-04-26 15:45 40.09369 4.23462 2999 ft 250 kts 148°
2026-04-26 15:46 40.06486 4.25528 2938 ft 224 kts 160°
2026-04-26 15:46 40.04935 4.25760 2696 ft 224 kts 182°
2026-04-26 15:46 40.03415 4.25495 2473 ft 221 kts 189°
2026-04-26 15:46 40.02422 4.25245 2454 ft 212 kts 189°
2026-04-26 15:47 40.00588 4.24800 2491 ft 189 kts 188°
2026-04-26 15:47 39.98253 4.24308 2413 ft 155 kts 186°
2026-04-26 15:47 39.97221 4.24101 2212 ft 148 kts 186°
2026-04-26 15:48 39.96241 4.23903 2024 ft 136 kts 186°
2026-04-26 15:48 39.95321 4.23717 1851 ft 134 kts 186°
2026-04-26 15:48 39.94392 4.23528 1679 ft 134 kts 185°
2026-04-26 15:48 39.93475 4.23341 1513 ft 134 kts 186°
2026-04-26 15:49 39.92557 4.23152 1342 ft 131 kts 185°
2026-04-26 15:49 39.91659 4.22969 1161 ft 132 kts 186°
2026-04-26 15:49 39.90749 4.22783 993 ft 132 kts 186°
2026-04-26 15:49 39.89839 4.22595 826 ft 130 kts 186°
2026-04-26 15:50 39.88952 4.22412 646 ft 130 kts 186°
2026-04-26 15:50 39.88051 4.22233 469 ft 132 kts 186°
2026-04-26 15:50 39.87149 4.22037 337 ft 128 kts 186°
2026-04-26 15:50 39.86359 4.21886 288 ft 90 kts 189°
2026-04-26 15:51 39.85910 4.21794 284 ft 47 kts 192°
2026-04-26 15:51 39.85680 4.21753 280 ft 28 kts 181°
2026-04-26 15:51 39.85516 4.21793 277 ft 16 kts 159°
2026-04-26 15:51 39.85420 4.21841 274 ft 13 kts 150°
2026-04-26 15:52 39.85420 4.21927 274 ft 11 kts 25°
2026-04-26 15:52 39.85498 4.21948 275 ft 11 kts
2026-04-26 15:52 39.85583 4.21965 276 ft 13 kts
2026-04-26 15:52 39.85646 4.21978 277 ft 14 kts
2026-04-26 15:53 39.85783 4.22006 279 ft 15 kts
2026-04-26 15:53 39.85896 4.22029 281 ft 16 kts
2026-04-26 15:53 39.86017 4.22054 281 ft 18 kts
2026-04-26 15:53 39.86124 4.22077 280 ft 14 kts
2026-04-26 15:54 39.86188 4.22110 279 ft 8 kts 64°
2026-04-26 15:54 39.86183 4.22209 277 ft 8 kts 99°
2026-04-26 15:54 39.86212 4.22264 276 ft 9 kts 14°
2026-04-26 15:54 39.86278 4.22278 276 ft 10 kts
2026-04-26 15:55 39.86353 4.22294 275 ft 8 kts
2026-04-26 15:55 39.86418 4.22307 276 ft 9 kts
2026-04-26 15:55 39.86488 4.22321 277 ft 10 kts
2026-04-26 15:55 39.86531 4.22335 278 ft 4 kts 37°
2026-04-26 15:56 39.86533 4.22395 276 ft 8 kts 98°
2026-04-26 15:56 39.86529 4.22430 276 ft 0 kts 98°